This is the latest recevied weather packets stored in our database for station/object K0CVS. If no packets are shown the sender has not sent any weather packets the latest 10 day(s).
| Time | Temp. | Humidity | Pressure | Rain* | Wind** | Luminosity | Snow |
|---|---|---|---|---|---|---|---|
| 1778193295 | 21.11° C | 41% | 1011 hPa | 0 mm | - | 41 W/m² | - |
| 1778192992 | 21.11° C | 41% | 1011.3 hPa | 0 mm | - | 39 W/m² | - |
| 1778192689 | 20.56° C | 42% | 1011.1 hPa | 0 mm | - | 38 W/m² | - |
| 1778192385 | 20.56° C | 41% | 1011.2 hPa | 0 mm | - | 38 W/m² | - |
| 1778192082 | 20.56° C | 40% | 1011.2 hPa | 0 mm | - | 39 W/m² | - |
| 1778191778 | 20.56° C | 41% | 1011.2 hPa | 0 mm | - | 49 W/m² | - |
| 1778191477 | 20.56° C | 41% | 1011.4 hPa | 0 mm | - | 41 W/m² | - |
| 1778191173 | 20.56° C | 43% | 1011.5 hPa | 0 mm | - | 57 W/m² | - |
| 1778190869 | 20.56° C | 42% | 1011.4 hPa | 0 mm | - | 60 W/m² | - |
| 1778190567 | 20.56° C | 42% | 1011.5 hPa | 0 mm | - | 147 W/m² | - |
| 1778190265 | 20° C | 43% | 1011.3 hPa | 0 mm | - | 299 W/m² | - |
| 1778189959 | 20° C | 43% | 1011.7 hPa | 0 mm | - | 326 W/m² | - |
| 1778189656 | 20° C | 43% | 1011.7 hPa | 0 mm | - | 209 W/m² | - |
| 1778189353 | 20.56° C | 42% | 1011.7 hPa | 0 mm | - | 150 W/m² | - |
| 1778189049 | 20.56° C | 41% | 1011.9 hPa | 0 mm | - | 290 W/m² | - |
| 1778188746 | 20.56° C | 41% | 1012 hPa | 0 mm | - | 370 W/m² | - |
| 1778188442 | 20.56° C | 42% | 1012 hPa | 0 mm | - | 448 W/m² | - |
| 1778188139 | 20.56° C | 43% | 1012 hPa | 0 mm | - | 399 W/m² | - |
| 1778187836 | 20.56° C | 43% | 1011.9 hPa | 0 mm | - | 479 W/m² | - |
| 1778187533 | 20.56° C | 44% | 1012.1 hPa | 0 mm | - | 518 W/m² | - |
| 1778187230 | 20.56° C | 43% | 1012.3 hPa | 0 mm | - | 541 W/m² | - |
| 1778186926 | 21.11° C | 42% | 1012.4 hPa | 0 mm | - | 568 W/m² | - |
| 1778186623 | 20.56° C | 42% | 1012.4 hPa | 0 mm | - | 571 W/m² | - |
| 1778186321 | 20.56° C | 42% | 1012.5 hPa | 0 mm | - | 578 W/m² | - |
| 1778186019 | 20.56° C | 42% | 1012.6 hPa | 0 mm | - | 603 W/m² | - |
* Rain latest hour (hover to see other rain measurements)
** Current wind speed in m/s (hover to see current wind gust speed)